Погода в Вамберке

Чехия     50°07′03″N   16°17′26″E
темп.,
°C
ветер,
м/с
пор.,
м/с
влажн.,
%
обл.,
%
осадки,
мм/ч
давл.,
гПа
погр.,
м
13 июня, вс
вс1323:00+13сз511924 0.4 1016342
02:00+10сз410933 0.5 1018228
05:00+8зсз3109642 0.0 1020230
08:00+11зсз7119226 0.2 1021742
11:00+14зсз8105944 0.1 10221672
14:00+15сз9105897 0.1 10231855
17:00+12зсз7973100 0.1 10251034
20:00+12сз487491 0.2 1025342
14 июня, пн
пн1423:00+8зсз22925 0.1 102631
02:00+8з128998 0.1 102689
05:00+7зсз229359 0.0 102548
08:00+11зсз22815 0.0 1025350
11:00+15зсз336624 0.0 10241110
14:00+18з23585 0.0 10221332
17:00+19зсз22590 0.0 10211098
20:00+16з22750 0.0 102013
15 июня, вт
вт1523:00+12юв22840 0.0 102110
02:00+10юв22895 0.0 102119
05:00+10юв2288100 0.0 102015
08:00+15ююв0075100 0.0 1020174
11:00+19зсз2264100 0.0 1019542
14:00+21зсз2260100 0.0 1018846
17:00+21зсз2364100 0.0 1018757
20:00+19ссз2280100 0.0 101822
16 июня, ср
ср1623:00+16всв1185100 0.0 101811
02:00+14в11875 0.0 101910
05:00+13в11895 0.0 101911
08:00+18в12780 0.0 1019283
11:00+22юв22652 0.0 1019995
14:00+23в22635 0.9 10181183
17:00+23вюв23667 1.8 10181063
20:00+20в23827 2.3 101737
17 июня, чт
чт1723:00+16вюв22916 0.0 101827
02:00+15в22910 0.0 101819
05:00+14вюв22915 0.0 101820
08:00+19вюв35795 0.0 1018275
11:00+23юв45645 0.0 1018851
14:00+25вюв45560 0.0 10171418
17:00+26вюв44580 0.0 10161318
20:00+21вюв387945 0.1 1016152